DW8507 Weather Reports


Display with metric or nautical units.
time (UTC)temp
F
wind
direction
speed
MPH
gust
MPH
rain 1hr
in
rain 24hr
in
rain mn
in
humidity
%
barometer
mb
20260505183457 58 0 0.0 0.0 0.00 0.00 0.00 63 1006.3
20260505182808 58 0 0.0 0.0 0.00 0.00 0.00 63 1006.4
20260505181658 59 0 0.0 0.0 0.00 0.00 0.00 63 1006.4
20260505181008 59 0 0.0 0.0 0.00 0.00 0.00 63 1006.4
20260505175856 60 0 0.0 0.0 0.00 0.00 0.00 62 1006.5
20260505175209 60 0 0.0 0.0 0.00 0.00 0.00 62 1006.5
20260505174057 60 0 0.0 0.0 0.00 0.00 0.00 63 1006.5
20260505173158 60 0 0.0 0.0 0.00 0.00 0.00 63 1006.5
20260505172258 60 0 0.0 0.0 0.00 0.00 0.00 62 1006.5
20260505171356 60 0 0.0 0.0 0.00 0.00 0.00 62 1006.5
20260505170458 61 0 0.0 0.0 0.00 0.00 0.00 62 1006.5
20260505165557 61 0 0.0 0.0 0.00 0.00 0.00 62 1006.6
20260505164656 61 0 0.0 0.0 0.00 0.00 0.00 62 1006.5
20260505163757 61 0 0.0 0.0 0.00 0.00 0.00 61 1006.4
20260505162856 61 0 0.0 0.0 0.00 0.00 0.00 61 1006.6
20260505162002 61 0 0.0 0.0 0.00 0.00 0.00 61 1006.6
20260505161309 62 0 0.0 0.0 0.00 0.00 0.00 61 1006.4
20260505160157 62 0 0.0 0.0 0.00 0.00 0.00 61 1006.5
20260505152557 62 0 0.0 0.0 0.00 0.00 0.00 61 1006.5
20260505151657 62 0 0.0 0.0 0.00 0.00 0.00 61 1006.5
20260505150756 62 0 0.0 0.0 0.00 0.00 0.00 62 1006.5
20260505140458 61 0 0.0 0.0 0.00 0.00 0.00 65 1007.0
20260505130158 61 0 0.0 0.0 0.00 0.00 0.00 68 1007.3
20260505124357 60 0 0.0 0.0 0.00 0.00 0.00 69 1007.4
20260505123456 59 0 0.0 0.0 0.00 0.00 0.00 70 1007.3
20260505122807 59 0 0.0 0.0 0.00 0.00 0.00 70 1007.2
20260505121909 59 0 0.0 0.0 0.00 0.00 0.00 70 1007.3
20260505120757 59 0 0.0 0.0 0.00 0.00 0.00 70 1007.3
20260505120109 59 0 0.0 0.0 0.00 0.00 0.00 69 1007.4
20260505114956 59 0 0.0 0.0 0.00 0.00 0.00 70 1007.4
20260505114309 59 0 0.0 0.0 0.00 0.00 0.00 70 1007.2
20260505113156 59 0 0.0 0.0 0.00 0.00 0.00 70 1007.4
20260505112258 59 0 0.0 0.0 0.00 0.00 0.00 69 1007.6
20260505111356 59 0 0.0 0.0 0.00 0.00 0.00 68 1007.5
20260505110708 60 0 0.0 0.0 0.00 0.00 0.00 68 1007.6
20260505101956 59 0 0.0 0.0 0.00 0.00 0.00 70 1008.1
20260505101056 59 0 0.0 0.0 0.00 0.00 0.00 70 1008.1
20260505100158 59 0 0.0 0.0 0.00 0.00 0.00 70 1008.0
20260505095256 59 0 0.0 0.0 0.00 0.00 0.00 70 1008.4
20260505094358 59 0 0.0 0.0 0.00 0.00 0.00 71 1008.0
20260505093456 59 0 0.0 0.0 0.00 0.00 0.00 71 1008.2
20260505092558 60 0 0.0 0.0 0.00 0.00 0.00 72 1008.1
20260505091656 59 0 0.0 0.0 0.00 0.00 0.00 74 1008.2
20260505090756 58 0 0.0 0.0 0.00 0.00 0.00 77 1008.2
20260505085856 57 0 0.0 0.0 0.00 0.00 0.00 78 1008.2
20260505085208 56 0 0.0 0.0 0.00 0.00 0.00 79 1008.4
20260505084057 55 0 0.0 0.0 0.00 0.00 0.00 80 1008.6
20260505083157 55 0 0.0 0.0 0.00 0.00 0.00 81 1008.6
20260505082256 54 0 0.0 0.0 0.00 0.00 0.00 85 1008.5
20260505081358 54 0 0.0 0.0 0.00 0.00 0.00 87 1008.4
20260505080458 54 0 0.0 0.0 0.00 0.00 0.00 91 1008.5
20260505075557 54 0 0.0 0.0 0.00 0.00 0.00 93 1008.5
20260505074656 53 0 0.0 0.0 0.00 0.00 0.00 94 1008.7
20260505073757 52 0 0.0 0.0 0.00 0.00 0.00 94 1008.7
20260505072856 52 0 0.0 0.0 0.00 0.00 0.00 95 1008.7
20260505072207 51 0 0.0 0.0 0.00 0.00 0.00 95 1008.5
20260505071056 51 0 0.0 0.0 0.00 0.00 0.00 95 1008.8
20260505070156 51 0 0.0 0.0 0.00 0.00 0.00 95 1008.7
20260505065256 51 0 0.0 0.0 0.00 0.00 0.00 95 1008.9
20260505064356 50 0 0.0 0.0 0.00 0.00 0.00 95 1008.7
20260505063456 50 0 0.0 0.0 0.00 0.00 0.00 95 1008.7
20260505062556 50 0 0.0 0.0 0.00 0.00 0.00 95 1009.0
20260505061656 49 0 0.0 0.0 0.00 0.00 0.00 94 1008.9
20260505060756 49 0 0.0 0.0 0.00 0.00 0.00 94 1008.7
20260505055858 49 0 0.0 0.0 0.00 0.00 0.00 94 1008.8
20260505054956 49 0 0.0 0.0 0.00 0.00 0.00 94 1008.8
20260505054056 49 0 0.0 0.0 0.00 0.00 0.00 93 1008.9
20260505053158 48 0 0.0 0.0 0.00 0.00 0.00 93 1008.7
20260505052256 48 0 0.0 0.0 0.00 0.00 0.00 93 1008.7
20260505051358 48 0 0.0 0.0 0.00 0.00 0.00 93 1008.8
20260505050707 48 0 0.0 0.0 0.00 0.00 0.00 93 1008.8
20260505041056 48 0 0.0 0.0 0.00 0.00 0.00 91 1009.0
20260505040156 47 0 0.0 0.0 0.00 0.00 0.00 91 1008.9
20260505035258 47 0 0.0 0.0 0.00 0.00 0.00 90 1009.1
20260505034608 47 0 0.0 0.0 0.00 0.00 0.00 90 1009.2
20260505033456 47 0 0.0 0.0 0.00 0.00 0.00 90 1008.8
20260505032556 47 0 0.0 0.0 0.00 0.00 0.00 90 1008.8
20260505031656 48 0 0.0 0.0 0.00 0.00 0.00 90 1008.8
20260505031007 48 0 0.0 0.0 0.00 0.00 0.00 90 1008.5
20260505030110 48 0 0.0 0.0 0.00 0.00 0.00 90 1008.7
20260505025207 49 0 0.0 0.0 0.00 0.00 0.00 90 1008.7
20260505024056 49 0 0.0 0.0 0.00 0.00 0.00 90 1008.9
20260505023407 49 0 0.0 0.0 0.00 0.00 0.00 90 1009.0
20260505022256 49 0 0.0 0.0 0.00 0.00 0.00 90 1009.0
20260505021358 49 0 0.0 0.0 0.00 0.00 0.00 90 1008.8
20260505020456 49 0 0.0 0.0 0.00 0.00 0.00 90 1008.5
20260505015558 50 0 0.0 0.0 0.00 0.00 0.00 90 1008.9
20260505014657 50 0 0.0 0.0 0.00 0.00 0.00 90 1009.0
20260505013756 51 0 0.0 0.0 0.00 0.00 0.00 90 1009.0
20260505012856 51 0 0.0 0.0 0.00 0.00 0.00 90 1009.1
20260505011956 51 0 0.0 0.0 0.00 0.00 0.00 89 1009.1
20260505011058 51 0 0.0 0.0 0.00 0.00 0.00 89 1009.2
20260505010156 51 0 0.0 0.0 0.00 0.00 0.00 88 1009.2
20260505005256 51 0 0.0 0.0 0.00 0.00 0.00 88 1009.1
20260505004358 52 0 0.0 0.0 0.00 0.00 0.00 88 1009.3
20260505003456 52 0 0.0 0.0 0.00 0.00 0.00 88 1009.3
20260505002556 52 0 0.0 0.0 0.00 0.00 0.00 88 1009.2
20260505001907 52 0 0.0 0.0 0.00 0.00 0.00 88 1009.2
20260505000756 52 0 0.0 0.0 0.00 0.00 0.00 88 1009.4
20260504235856 52 0 0.0 0.0 0.00 0.00 0.00 87 1009.5
20260504234956 53 0 0.0 0.0 0.00 0.00 0.00 87 1009.5
20260504234058 53 0 0.0 0.0 0.00 0.00 0.00 86 1009.5
20260504233408 53 0 0.0 0.0 0.00 0.00 0.00 86 1009.4
20260504232256 53 0 0.0 0.0 0.00 0.00 0.00 86 1009.4
20260504231356 53 0 0.0 0.0 0.00 0.00 0.00 85 1009.6
20260504230456 54 0 0.0 0.0 0.00 0.00 0.00 85 1009.6
20260504225556 54 0 0.0 0.0 0.00 0.00 0.00 85 1009.5
20260504224706 54 0 0.0 0.0 0.00 0.00 0.00 85 1009.5
20260504223757 54 0 0.0 0.0 0.00 0.00 0.00 82 1009.4
20260504222856 55 0 0.0 0.0 0.00 0.00 0.00 81 1009.8
20260504221956 55 0 0.0 0.0 0.00 0.00 0.00 81 1009.5
20260504221056 55 0 0.0 0.0 0.00 0.00 0.00 81 1009.4
20260504220156 55 0 0.0 0.0 0.00 0.00 0.00 81 1009.8
20260504215258 55 0 0.0 0.0 0.00 0.00 0.00 81 1009.8
20260504214356 55 0 0.0 0.0 0.00 0.00 0.00 81 1009.6
20260504213456 55 0 0.0 0.0 0.00 0.00 0.00 81 1009.5
20260504212601 56 0 0.0 0.0 0.00 0.00 0.00 81 1009.8
20260504211658 56 0 0.0 0.0 0.00 0.00 0.00 81 1009.9
20260504210756 56 0 0.0 0.0 0.00 0.00 0.00 81 1009.6
20260504205856 56 0 0.0 0.0 0.00 0.00 0.00 81 1009.5
20260504204956 56 0 0.0 0.0 0.00 0.00 0.00 81 1009.8
20260504204308 56 0 0.0 0.0 0.00 0.00 0.00 80 1009.8
20260504203156 56 0 0.0 0.0 0.00 0.00 0.00 80 1009.5
20260504202256 56 0 0.0 0.0 0.00 0.00 0.00 80 1009.5
20260504201610 56 0 0.0 0.0 0.00 0.00 0.00 80 1009.7
20260504200458 56 0 0.0 0.0 0.00 0.00 0.00 80 1009.6
20260504195556 57 0 0.0 0.0 0.00 0.00 0.00 80 1009.5
20260504194656 57 0 0.0 0.0 0.00 0.00 0.00 80 1009.4
20260504193758 57 0 0.0 0.0 0.00 0.00 0.00 79 1009.1
20260504192856 57 0 0.0 0.0 0.00 0.00 0.00 79 1009.3
20260504191956 57 0 0.0 0.0 0.00 0.00 0.00 79 1009.1
20260504191058 57 0 0.0 0.0 0.00 0.00 0.00 79 1009.1
20260504190409 58 0 0.0 0.0 0.00 0.00 0.00 78 1009.1
20260504185257 58 0 0.0 0.0 0.00 0.00 0.00 78 1009.2
20260504184358 58 0 0.0 0.0 0.00 0.00 0.00 78 1009.1